INTELSAT 907 (IS-907) (27683 NORAD) Tracking and Keplerian Element Data

This shows tracking and keplerian element data for the satellite.

Feedback or suggestion? Click here.




ElementValue
Catalog27683
NameINTELSAT 907 (IS-907)
Epoch Orbit5647
Epoch Day201.24874897
Epoch Year2018
RAAN169.2364
Inclination0.0248
Eccentricity0.0002529
Argument of Perigee307.5173
Mean Anonmoly243.255
Mean Motion1.00272017
Decay Rate-2.19E-06
L11 27683U 03007A 18201.24874897 -.00000219 00000-0 00000-0 0 9990
L22 27683 0.0248 169.2364 0002529 307.5173 243.2550 1.00272017 56470

Live tracking and technical data element details for INTELSAT 907 (IS-907) (NORAD 27683). INTELSAT 907 (IS-907) can be tracked NOW for your location showing map with azimuth and elevation plus other details from your city location.

Track the satellite on the map from your city or location and see movement details for azimuth, elevation, latitude, longitude, range, height, and movement on the map or in text.







IsCatalogInMostPopularTable: catalog: 27683, numindb: 36
Update: records affected: 1



GetName: 27683 INTELSAT 907 (IS-907)

Hit Count: updated at: Sat, 21 Jul 2018 07:52:18 GMT